owner,sensor,date,latitude,longitude,vertical_datum,direction_of_sea_water_velocity,sea_water_speed,upward_sea_water_velocity,qcFlag 
ADCP,ioos:station:wmo:42890:1,2012-05-01T00:03:00Z,27.6250,-90.4410,15.2,230.0,31.9,-9999.0,'11111222,11111222,99999999' 
ADCP,ioos:station:wmo:42890:1,2012-05-01T00:23:00Z,27.6250,-90.4410,15.2,232.0,33.2,-9999.0,'11111222,11111222,99999999' 
ADCP,ioos:station:wmo:42890:1,2012-05-01T00:43:00Z,27.6250,-90.4410,15.2,232.0,31.8,-9999.0,'11111222,11111222,99999999' 
ADCP,ioos:station:wmo:42890:1,2012-05-01T01:03:00Z,27.6250,-90.4410,15.2,230.0,27.8,-9999.0,'11111222,11111222,99999999' 
ADCP,ioos:station:wmo:42890:1,2012-05-01T01:23:00Z,27.6250,-90.4410,15.2,228.0,26.5,-9999.0,'11111222,11111222,99999999' 
ADCP,ioos:station:wmo:42890:1,2012-05-01T01:43:00Z,27.6250,-90.4410,15.2,233.0,27.9,-9999.0,'11111222,11111222,99999999' 
ADCP,ioos:station:wmo:42890:1,2012-05-01T02:03:00Z,27.6250,-90.4410,15.2,232.0,26.0,-9999.0,'11111222,11111222,99999999' 
ADCP,ioos:station:wmo:42890:1,2012-05-01T02:23:00Z,27.6250,-90.4410,15.2,229.0,23.5,-9999.0,'11111222,11111222,99999999' 
ADCP,ioos:station:wmo:42890:1,2012-05-01T02:43:00Z,27.6250,-90.4410,15.2,227.0,24.0,-9999.0,'11111222,11111222,99999999' 
ADCP,ioos:station:wmo:42890:1,2012-05-01T03:03:00Z,27.6250,-90.4410,15.2,224.0,21.4,-9999.0,'11111222,11111222,99999999' 
ADCP,ioos:station:wmo:42890:1,2012-05-01T03:23:00Z,27.6250,-90.4410,15.2,225.0,21.7,-9999.0,'11111222,11111222,99999999' 
ADCP,ioos:station:wmo:42890:1,2012-05-01T03:43:00Z,27.6250,-90.4410,15.2,229.0,20.6,-9999.0,'11111222,11111222,99999999' 
ADCP,ioos:station:wmo:42890:1,2012-05-01T04:03:00Z,27.6250,-90.4410,15.2,233.0,17.8,-9999.0,'11111222,11111222,99999999' 
ADCP,ioos:station:wmo:42890:1,2012-05-01T04:23:00Z,27.6250,-90.4410,15.2,230.0,17.8,-9999.0,'11111222,11111222,99999999' 
ADCP,ioos:station:wmo:42890:1,2012-05-01T04:43:00Z,27.6250,-90.4410,15.2,227.0,16.9,-9999.0,'11111222,11111222,99999999' 
ADCP,ioos:station:wmo:42890:1,2012-05-01T05:03:00Z,27.6250,-90.4410,15.2,226.0,14.6,-9999.0,'11111222,11111222,99999999' 
ADCP,ioos:station:wmo:42890:1,2012-05-01T05:23:00Z,27.6250,-90.4410,15.2,238.0,18.9,-9999.0,'11111222,11111222,99999999' 
ADCP,ioos:station:wmo:42890:1,2012-05-01T05:43:00Z,27.6250,-90.4410,15.2,208.0,11.9,-9999.0,'11111222,11111222,99999999' 
ADCP,ioos:station:wmo:42890:1,2012-05-01T06:03:00Z,27.6250,-90.4410,15.2,210.0,10.7,-9999.0,'11111222,11111222,99999999' 
ADCP,ioos:station:wmo:42890:1,2012-05-01T06:23:00Z,27.6250,-90.4410,15.2,223.0,12.4,-9999.0,'11111222,11111222,99999999' 
ADCP,ioos:station:wmo:42890:1,2012-05-01T06:43:00Z,27.6250,-90.4410,15.2,217.0,11.8,-9999.0,'11111222,11111222,99999999' 
ADCP,ioos:station:wmo:42890:1,2012-05-01T07:03:00Z,27.6250,-90.4410,15.2,222.0,12.7,-9999.0,'11111222,11111222,99999999' 
ADCP,ioos:station:wmo:42890:1,2012-05-01T07:23:00Z,27.6250,-90.4410,15.2,219.0,12.4,-9999.0,'11111222,11111222,99999999' 
ADCP,ioos:station:wmo:42890:1,2012-05-01T07:43:00Z,27.6250,-90.4410,15.2,205.0,11.2,-9999.0,'11111222,11111222,99999999' 
ADCP,ioos:station:wmo:42890:1,2012-05-01T08:03:00Z,27.6250,-90.4410,15.2,205.0,11.4,-9999.0,'11111222,11111222,99999999' 
ADCP,ioos:station:wmo:42890:1,2012-05-01T08:23:00Z,27.6250,-90.4410,15.2,196.0,9.9,-9999.0,'11133222,11111222,99999999' 
ADCP,ioos:station:wmo:42890:1,2012-05-01T08:43:00Z,27.6250,-90.4410,15.2,200.0,9.7,-9999.0,'11133222,11111222,99999999' 
ADCP,ioos:station:wmo:42890:1,2012-05-01T09:03:00Z,27.6250,-90.4410,15.2,200.0,8.9,-9999.0,'11133222,11111222,99999999' 
ADCP,ioos:station:wmo:42890:1,2012-05-01T09:23:00Z,27.6250,-90.4410,15.2,207.0,8.4,-9999.0,'11133222,11111222,99999999' 
ADCP,ioos:station:wmo:42890:1,2012-05-01T09:43:00Z,27.6250,-90.4410,15.2,192.0,8.3,-9999.0,'11133222,11111222,99999999' 
ADCP,ioos:station:wmo:42890:1,2012-05-01T10:03:00Z,27.6250,-90.4410,15.2,202.0,11.3,-9999.0,'11111222,11111222,99999999' 
ADCP,ioos:station:wmo:42890:1,2012-05-01T10:23:00Z,27.6250,-90.4410,15.2,186.0,12.0,-9999.0,'11111222,11111222,99999999' 
ADCP,ioos:station:wmo:42890:1,2012-05-01T10:43:00Z,27.6250,-90.4410,15.2,177.0,9.2,-9999.0,'11133222,11111222,99999999' 
ADCP,ioos:station:wmo:42890:1,2012-05-01T11:03:00Z,27.6250,-90.4410,15.2,189.0,12.2,-9999.0,'11111222,11111222,99999999' 
ADCP,ioos:station:wmo:42890:1,2012-05-01T11:23:00Z,27.6250,-90.4410,15.2,187.0,13.5,-9999.0,'11111222,11111222,99999999' 
ADCP,ioos:station:wmo:42890:1,2012-05-01T11:43:00Z,27.6250,-90.4410,15.2,176.0,12.1,-9999.0,'11111222,11111222,99999999' 
ADCP,ioos:station:wmo:42890:1,2012-05-01T12:03:00Z,27.6250,-90.4410,15.2,190.0,12.5,-9999.0,'11111222,11111222,99999999' 
ADCP,ioos:station:wmo:42890:1,2012-05-01T12:23:00Z,27.6250,-90.4410,15.2,193.0,13.9,-9999.0,'11111222,11111222,99999999' 
ADCP,ioos:station:wmo:42890:1,2012-05-01T12:43:00Z,27.6250,-90.4410,15.2,232.0,19.8,-9999.0,'11111222,11111222,99999999' 
ADCP,ioos:station:wmo:42890:1,2012-05-01T13:03:00Z,27.6250,-90.4410,15.2,228.0,17.8,-9999.0,'11111222,11111222,99999999' 
ADCP,ioos:station:wmo:42890:1,2012-05-01T13:23:00Z,27.6250,-90.4410,15.2,217.0,17.4,-9999.0,'11111222,11111222,99999999' 
ADCP,ioos:station:wmo:42890:1,2012-05-01T13:43:00Z,27.6250,-90.4410,15.2,213.0,16.8,-9999.0,'11111222,11111222,99999999' 
ADCP,ioos:station:wmo:42890:1,2012-05-01T14:03:00Z,27.6250,-90.4410,15.2,206.0,12.3,-9999.0,'11111222,11111222,99999999' 
ADCP,ioos:station:wmo:42890:1,2012-05-01T14:23:00Z,27.6250,-90.4410,15.2,207.0,12.0,-9999.0,'11111222,11111222,99999999' 
ADCP,ioos:station:wmo:42890:1,2012-05-01T14:43:00Z,27.6250,-90.4410,15.2,180.0,14.6,-9999.0,'11111222,11111222,99999999' 
ADCP,ioos:station:wmo:42890:1,2012-05-01T15:03:00Z,27.6250,-90.4410,15.2,209.0,19.5,-9999.0,'11111222,11111222,99999999' 
ADCP,ioos:station:wmo:42890:1,2012-05-01T15:23:00Z,27.6250,-90.4410,15.2,205.0,20.3,-9999.0,'11111222,11111222,99999999' 
ADCP,ioos:station:wmo:42890:1,2012-05-01T15:43:00Z,27.6250,-90.4410,15.2,215.0,26.0,-9999.0,'11111222,11111222,99999999' 
ADCP,ioos:station:wmo:42890:1,2012-05-01T16:03:00Z,27.6250,-90.4410,15.2,208.0,24.4,-9999.0,'11111222,11111222,99999999' 
ADCP,ioos:station:wmo:42890:1,2012-05-01T16:23:00Z,27.6250,-90.4410,15.2,204.0,24.4,-9999.0,'11111222,11111222,99999999' 
ADCP,ioos:station:wmo:42890:1,2012-05-01T16:43:00Z,27.6250,-90.4410,15.2,203.0,23.5,-9999.0,'11111222,11111222,99999999' 
ADCP,ioos:station:wmo:42890:1,2012-05-01T17:03:00Z,27.6250,-90.4410,15.2,211.0,25.9,-9999.0,'11111222,11111222,99999999' 
ADCP,ioos:station:wmo:42890:1,2012-05-01T17:23:00Z,27.6250,-90.4410,15.2,215.0,27.3,-9999.0,'11111222,11111222,99999999' 
ADCP,ioos:station:wmo:42890:1,2012-05-01T17:43:00Z,27.6250,-90.4410,15.2,218.0,30.1,-9999.0,'11111222,11111222,99999999' 
ADCP,ioos:station:wmo:42890:1,2012-05-01T18:03:00Z,27.6250,-90.4410,15.2,214.0,29.3,-9999.0,'11111222,11111222,99999999' 
ADCP,ioos:station:wmo:42890:1,2012-05-01T18:23:00Z,27.6250,-90.4410,15.2,219.0,32.1,-9999.0,'11111222,11111222,99999999' 
ADCP,ioos:station:wmo:42890:1,2012-05-01T18:43:00Z,27.6250,-90.4410,15.2,219.0,34.5,-9999.0,'11111222,11111222,99999999' 
ADCP,ioos:station:wmo:42890:1,2012-05-01T19:03:00Z,27.6250,-90.4410,15.2,218.0,34.9,-9999.0,'11111222,11111222,99999999' 
ADCP,ioos:station:wmo:42890:1,2012-05-01T19:23:00Z,27.6250,-90.4410,15.2,216.0,34.8,-9999.0,'11111222,11111222,99999999' 
ADCP,ioos:station:wmo:42890:1,2012-05-01T19:43:00Z,27.6250,-90.4410,15.2,218.0,33.8,-9999.0,'11111222,11111222,99999999' 
ADCP,ioos:station:wmo:42890:1,2012-05-01T20:03:00Z,27.6250,-90.4410,15.2,218.0,36.9,-9999.0,'11111222,11111222,99999999' 
ADCP,ioos:station:wmo:42890:1,2012-05-01T20:23:00Z,27.6250,-90.4410,15.2,220.0,41.9,-9999.0,'11111222,11111222,99999999' 
ADCP,ioos:station:wmo:42890:1,2012-05-01T20:43:00Z,27.6250,-90.4410,15.2,218.0,43.6,-9999.0,'11111222,11111222,99999999' 
ADCP,ioos:station:wmo:42890:1,2012-05-01T21:03:00Z,27.6250,-90.4410,15.2,223.0,48.6,-9999.0,'11111222,11111222,99999999' 
ADCP,ioos:station:wmo:42890:1,2012-05-01T21:23:00Z,27.6250,-90.4410,15.2,223.0,44.7,-9999.0,'11111222,11111222,99999999' 
ADCP,ioos:station:wmo:42890:1,2012-05-01T21:43:00Z,27.6250,-90.4410,15.2,228.0,46.0,-9999.0,'11111222,11111222,99999999' 
ADCP,ioos:station:wmo:42890:1,2012-05-01T22:03:00Z,27.6250,-90.4410,15.2,222.0,44.9,-9999.0,'11111222,11111222,99999999' 
ADCP,ioos:station:wmo:42890:1,2012-05-01T22:23:00Z,27.6250,-90.4410,15.2,212.0,41.2,-9999.0,'11111222,11111222,99999999' 
ADCP,ioos:station:wmo:42890:1,2012-05-01T22:43:00Z,27.6250,-90.4410,15.2,213.0,39.5,-9999.0,'11111222,11111222,99999999' 
ADCP,ioos:station:wmo:42890:1,2012-05-01T23:03:00Z,27.6250,-90.4410,15.2,216.0,39.8,-9999.0,'11111222,11111222,99999999' 
ADCP,ioos:station:wmo:42890:1,2012-05-01T23:23:00Z,27.6250,-90.4410,15.2,224.0,44.4,-9999.0,'11111222,11111222,99999999' 
ADCP,ioos:station:wmo:42890:1,2012-05-01T23:43:00Z,27.6250,-90.4410,15.2,228.0,46.6,-9999.0,'11111222,11111222,99999999' 
ADCP,ioos:station:wmo:42890:1,2012-05-02T00:03:00Z,27.6250,-90.4410,15.2,229.0,47.9,-9999.0,'11111222,11111222,99999999' 
ADCP,ioos:station:wmo:42890:1,2012-05-02T00:23:00Z,27.6250,-90.4410,15.2,232.0,41.1,-9999.0,'11111222,11111222,99999999' 
ADCP,ioos:station:wmo:42890:1,2012-05-02T00:43:00Z,27.6250,-90.4410,15.2,232.0,38.9,-9999.0,'11111222,11111222,99999999' 
ADCP,ioos:station:wmo:42890:1,2012-05-02T01:03:00Z,27.6250,-90.4410,15.2,237.0,41.8,-9999.0,'11111222,11111222,99999999' 
ADCP,ioos:station:wmo:42890:1,2012-05-02T01:23:00Z,27.6250,-90.4410,15.2,237.0,39.5,-9999.0,'11111222,11111222,99999999' 
ADCP,ioos:station:wmo:42890:1,2012-05-02T01:43:00Z,27.6250,-90.4410,15.2,237.0,36.6,-9999.0,'11111222,11111222,99999999' 
ADCP,ioos:station:wmo:42890:1,2012-05-02T02:03:00Z,27.6250,-90.4410,15.2,236.0,31.0,-9999.0,'11111222,11111222,99999999' 
ADCP,ioos:station:wmo:42890:1,2012-05-02T02:23:00Z,27.6250,-90.4410,15.2,238.0,32.0,-9999.0,'11111222,11111222,99999999' 
ADCP,ioos:station:wmo:42890:1,2012-05-02T02:43:00Z,27.6250,-90.4410,15.2,243.0,31.3,-9999.0,'11111222,11111222,99999999' 
ADCP,ioos:station:wmo:42890:1,2012-05-02T03:03:00Z,27.6250,-90.4410,15.2,242.0,28.9,-9999.0,'11111222,11111222,99999999' 
ADCP,ioos:station:wmo:42890:1,2012-05-02T03:23:00Z,27.6250,-90.4410,15.2,241.0,25.4,-9999.0,'11111222,11111222,99999999' 
ADCP,ioos:station:wmo:42890:1,2012-05-02T03:43:00Z,27.6250,-90.4410,15.2,225.0,17.3,-9999.0,'11111222,11111222,99999999' 
ADCP,ioos:station:wmo:42890:1,2012-05-02T04:03:00Z,27.6250,-90.4410,15.2,222.0,14.5,-9999.0,'11111222,11111222,99999999' 
ADCP,ioos:station:wmo:42890:1,2012-05-02T04:23:00Z,27.6250,-90.4410,15.2,221.0,14.5,-9999.0,'11111222,11111222,99999999' 
ADCP,ioos:station:wmo:42890:1,2012-05-02T04:43:00Z,27.6250,-90.4410,15.2,218.0,13.0,-9999.0,'11111222,11111222,99999999' 
ADCP,ioos:station:wmo:42890:1,2012-05-02T05:03:00Z,27.6250,-90.4410,15.2,212.0,12.2,-9999.0,'11111222,11111222,99999999' 
ADCP,ioos:station:wmo:42890:1,2012-05-02T05:23:00Z,27.6250,-90.4410,15.2,219.0,11.8,-9999.0,'11111222,11111222,99999999' 
ADCP,ioos:station:wmo:42890:1,2012-05-02T05:43:00Z,27.6250,-90.4410,15.2,224.0,12.1,-9999.0,'11111222,11111222,99999999' 
ADCP,ioos:station:wmo:42890:1,2012-05-02T06:03:00Z,27.6250,-90.4410,15.2,212.0,10.5,-9999.0,'11111222,11111222,99999999' 
ADCP,ioos:station:wmo:42890:1,2012-05-02T06:23:00Z,27.6250,-90.4410,15.2,123.0,14.9,-9999.0,'11111222,11111222,99999999' 
ADCP,ioos:station:wmo:42890:1,2012-05-02T06:43:00Z,27.6250,-90.4410,15.2,279.0,12.1,-9999.0,'11111222,11111222,99999999' 
ADCP,ioos:station:wmo:42890:1,2012-05-02T07:03:00Z,27.6250,-90.4410,15.2,46.0,9.5,-9999.0,'11133222,11111222,99999999' 
ADCP,ioos:station:wmo:42890:1,2012-05-02T07:23:00Z,27.6250,-90.4410,15.2,58.0,13.6,-9999.0,'11111222,11111222,99999999' 
ADCP,ioos:station:wmo:42890:1,2012-05-02T07:43:00Z,27.6250,-90.4410,15.2,348.0,9.0,-9999.0,'11133222,11111222,99999999' 
ADCP,ioos:station:wmo:42890:1,2012-05-02T08:03:00Z,27.6250,-90.4410,15.2,321.0,11.8,-9999.0,'11111222,11111222,99999999' 
ADCP,ioos:station:wmo:42890:1,2012-05-02T08:23:00Z,27.6250,-90.4410,15.2,358.0,9.2,-9999.0,'11133222,11111222,99999999' 
ADCP,ioos:station:wmo:42890:1,2012-05-02T08:43:00Z,27.6250,-90.4410,15.2,353.0,9.4,-9999.0,'11133222,11111222,99999999' 
ADCP,ioos:station:wmo:42890:1,2012-05-02T09:03:00Z,27.6250,-90.4410,15.2,350.0,8.8,-9999.0,'11133222,11111222,99999999' 
ADCP,ioos:station:wmo:42890:1,2012-05-02T09:23:00Z,27.6250,-90.4410,15.2,339.0,9.9,-9999.0,'11133222,11111222,99999999' 
ADCP,ioos:station:wmo:42890:1,2012-05-02T09:43:00Z,27.6250,-90.4410,15.2,354.0,10.5,-9999.0,'11111222,11111222,99999999' 
ADCP,ioos:station:wmo:42890:1,2012-05-02T10:03:00Z,27.6250,-90.4410,15.2,19.0,10.5,-9999.0,'11111222,11111222,99999999' 
ADCP,ioos:station:wmo:42890:1,2012-05-02T10:23:00Z,27.6250,-90.4410,15.2,2.0,11.6,-9999.0,'11111222,11111222,99999999' 
ADCP,ioos:station:wmo:42890:1,2012-05-02T10:43:00Z,27.6250,-90.4410,15.2,348.0,10.3,-9999.0,'11111222,11111222,99999999' 
ADCP,ioos:station:wmo:42890:1,2012-05-02T11:03:00Z,27.6250,-90.4410,15.2,340.0,11.0,-9999.0,'11111222,11111222,99999999' 
ADCP,ioos:station:wmo:42890:1,2012-05-02T11:23:00Z,27.6250,-90.4410,15.2,354.0,12.3,-9999.0,'11111222,11111222,99999999' 
ADCP,ioos:station:wmo:42890:1,2012-05-02T11:43:00Z,27.6250,-90.4410,15.2,357.0,13.7,-9999.0,'11111222,11111222,99999999' 
ADCP,ioos:station:wmo:42890:1,2012-05-02T12:03:00Z,27.6250,-90.4410,15.2,357.0,13.4,-9999.0,'11111222,11111222,99999999' 
ADCP,ioos:station:wmo:42890:1,2012-05-02T12:23:00Z,27.6250,-90.4410,15.2,15.0,14.7,-9999.0,'11111222,11111222,99999999' 
ADCP,ioos:station:wmo:42890:1,2012-05-02T12:43:00Z,27.6250,-90.4410,15.2,4.0,12.8,-9999.0,'11111222,11111222,99999999' 
ADCP,ioos:station:wmo:42890:1,2012-05-02T13:03:00Z,27.6250,-90.4410,15.2,17.0,14.2,-9999.0,'11111222,11111222,99999999' 
ADCP,ioos:station:wmo:42890:1,2012-05-02T14:47:00Z,27.6250,-90.4410,15.2,20.0,14.8,-9999.0,'11111222,11111222,99999999' 
ADCP,ioos:station:wmo:42890:1,2012-05-02T15:07:00Z,27.6250,-90.4410,15.2,21.0,13.4,-9999.0,'11111222,11111222,99999999' 
ADCP,ioos:station:wmo:42890:1,2012-05-02T15:27:00Z,27.6250,-90.4410,15.2,32.0,15.5,-9999.0,'11111222,11111222,99999999' 
ADCP,ioos:station:wmo:42890:1,2012-05-02T15:47:00Z,27.6250,-90.4410,15.2,43.0,15.7,-9999.0,'11111222,11111222,99999999' 
ADCP,ioos:station:wmo:42890:1,2012-05-02T16:07:00Z,27.6250,-90.4410,15.2,44.0,15.8,-9999.0,'11111222,11111222,99999999' 
ADCP,ioos:station:wmo:42890:1,2012-05-02T16:27:00Z,27.6250,-90.4410,15.2,43.0,16.0,-9999.0,'11111222,11111222,99999999' 
ADCP,ioos:station:wmo:42890:1,2012-05-02T16:47:00Z,27.6250,-90.4410,15.2,51.0,15.6,-9999.0,'11111222,11111222,99999999' 
ADCP,ioos:station:wmo:42890:1,2012-05-02T17:07:00Z,27.6250,-90.4410,15.2,60.0,17.7,-9999.0,'11111222,11111222,99999999' 
ADCP,ioos:station:wmo:42890:1,2012-05-02T17:27:00Z,27.6250,-90.4410,15.2,66.0,23.2,-9999.0,'11111222,11111222,99999999' 
ADCP,ioos:station:wmo:42890:1,2012-05-02T17:47:00Z,27.6250,-90.4410,15.2,72.0,19.0,-9999.0,'11111222,11111222,99999999' 
ADCP,ioos:station:wmo:42890:1,2012-05-02T18:07:00Z,27.6250,-90.4410,15.2,71.0,19.5,-9999.0,'11111222,11111222,99999999' 
ADCP,ioos:station:wmo:42890:1,2012-05-02T18:27:00Z,27.6250,-90.4410,15.2,67.0,23.3,-9999.0,'11111222,11111222,99999999' 
ADCP,ioos:station:wmo:42890:1,2012-05-02T18:47:00Z,27.6250,-90.4410,15.2,69.0,26.4,-9999.0,'11111222,11111222,99999999' 
ADCP,ioos:station:wmo:42890:1,2012-05-02T19:07:00Z,27.6250,-90.4410,15.2,71.0,30.9,-9999.0,'11111222,11111222,99999999' 
ADCP,ioos:station:wmo:42890:1,2012-05-02T19:27:00Z,27.6250,-90.4410,15.2,70.0,28.5,-9999.0,'11111222,11111222,99999999' 
ADCP,ioos:station:wmo:42890:1,2012-05-02T19:47:00Z,27.6250,-90.4410,15.2,77.0,32.6,-9999.0,'11111222,11111222,99999999' 
ADCP,ioos:station:wmo:42890:1,2012-05-02T20:07:00Z,27.6250,-90.4410,15.2,83.0,28.0,-9999.0,'11111222,11111222,99999999' 
ADCP,ioos:station:wmo:42890:1,2012-05-02T20:27:00Z,27.6250,-90.4410,15.2,81.0,27.6,-9999.0,'11111222,11111222,99999999' 
ADCP,ioos:station:wmo:42890:1,2012-05-02T20:47:00Z,27.6250,-90.4410,15.2,101.0,15.6,-9999.0,'11111222,11111222,99999999' 
ADCP,ioos:station:wmo:42890:1,2012-05-02T21:07:00Z,27.6250,-90.4410,15.2,102.0,20.4,-9999.0,'11111222,11111222,99999999' 
ADCP,ioos:station:wmo:42890:1,2012-05-02T21:27:00Z,27.6250,-90.4410,15.2,100.0,22.2,-9999.0,'11111222,11111222,99999999' 
ADCP,ioos:station:wmo:42890:1,2012-05-02T21:47:00Z,27.6250,-90.4410,15.2,112.0,19.1,-9999.0,'11111222,11111222,99999999' 
ADCP,ioos:station:wmo:42890:1,2012-05-02T22:07:00Z,27.6250,-90.4410,15.2,112.0,23.6,-9999.0,'11111222,11111222,99999999' 
ADCP,ioos:station:wmo:42890:1,2012-05-02T22:27:00Z,27.6250,-90.4410,15.2,86.0,47.1,-9999.0,'11111222,11111222,99999999' 
ADCP,ioos:station:wmo:42890:1,2012-05-02T22:47:00Z,27.6250,-90.4410,15.2,84.0,61.3,-9999.0,'11111222,11111222,99999999' 
ADCP,ioos:station:wmo:42890:1,2012-05-02T23:07:00Z,27.6250,-90.4410,15.2,129.0,18.0,-9999.0,'11111222,11111222,99999999' 
ADCP,ioos:station:wmo:42890:1,2012-05-02T23:27:00Z,27.6250,-90.4410,15.2,202.0,13.7,-9999.0,'11111222,11111222,99999999' 
ADCP,ioos:station:wmo:42890:1,2012-05-02T23:47:00Z,27.6250,-90.4410,15.2,161.0,14.6,-9999.0,'11111222,11111222,99999999' 
ADCP,ioos:station:wmo:42890:1,2012-05-03T00:07:00Z,27.6250,-90.4410,15.2,187.0,15.7,-9999.0,'11111222,11111222,99999999' 
ADCP,ioos:station:wmo:42890:1,2012-05-03T00:27:00Z,27.6250,-90.4410,15.2,175.0,14.6,-9999.0,'11111222,11111222,99999999' 
ADCP,ioos:station:wmo:42890:1,2012-05-03T00:47:00Z,27.6250,-90.4410,15.2,206.0,18.4,-9999.0,'11111222,11111222,99999999' 
ADCP,ioos:station:wmo:42890:1,2012-05-03T01:07:00Z,27.6250,-90.4410,15.2,221.0,20.8,-9999.0,'11111222,11111222,99999999' 
ADCP,ioos:station:wmo:42890:1,2012-05-03T01:27:00Z,27.6250,-90.4410,15.2,216.0,20.7,-9999.0,'11111222,11111222,99999999' 
ADCP,ioos:station:wmo:42890:1,2012-05-03T01:47:00Z,27.6250,-90.4410,15.2,220.0,20.2,-9999.0,'11111222,11111222,99999999' 
ADCP,ioos:station:wmo:42890:1,2012-05-03T02:07:00Z,27.6250,-90.4410,15.2,220.0,19.3,-9999.0,'11111222,11111222,99999999' 
ADCP,ioos:station:wmo:42890:1,2012-05-03T02:27:00Z,27.6250,-90.4410,15.2,215.0,15.7,-9999.0,'11111222,11111222,99999999' 
ADCP,ioos:station:wmo:42890:1,2012-05-03T02:47:00Z,27.6250,-90.4410,15.2,221.0,19.6,-9999.0,'11111222,11111222,99999999' 
ADCP,ioos:station:wmo:42890:1,2012-05-03T03:07:00Z,27.6250,-90.4410,15.2,222.0,20.2,-9999.0,'11111222,11111222,99999999' 
ADCP,ioos:station:wmo:42890:1,2012-05-03T03:27:00Z,27.6250,-90.4410,15.2,222.0,23.3,-9999.0,'11111222,11111222,99999999' 
ADCP,ioos:station:wmo:42890:1,2012-05-03T03:47:00Z,27.6250,-90.4410,15.2,218.0,23.5,-9999.0,'11111222,11111222,99999999' 
ADCP,ioos:station:wmo:42890:1,2012-05-03T04:07:00Z,27.6250,-90.4410,15.2,214.0,27.5,-9999.0,'11111222,11111222,99999999' 
ADCP,ioos:station:wmo:42890:1,2012-05-03T04:27:00Z,27.6250,-90.4410,15.2,218.0,23.5,-9999.0,'11111222,11111222,99999999' 
ADCP,ioos:station:wmo:42890:1,2012-05-03T04:47:00Z,27.6250,-90.4410,15.2,222.0,24.1,-9999.0,'11111222,11111222,99999999' 
ADCP,ioos:station:wmo:42890:1,2012-05-03T05:07:00Z,27.6250,-90.4410,15.2,223.0,24.2,-9999.0,'11111222,11111222,99999999' 
ADCP,ioos:station:wmo:42890:1,2012-05-03T05:27:00Z,27.6250,-90.4410,15.2,219.0,20.6,-9999.0,'11111222,11111222,99999999' 
ADCP,ioos:station:wmo:42890:1,2012-05-03T05:47:00Z,27.6250,-90.4410,15.2,228.0,20.8,-9999.0,'11111222,11111222,99999999' 
ADCP,ioos:station:wmo:42890:1,2012-05-03T06:07:00Z,27.6250,-90.4410,15.2,221.0,19.8,-9999.0,'11111222,11111222,99999999' 
ADCP,ioos:station:wmo:42890:1,2012-05-03T06:27:00Z,27.6250,-90.4410,15.2,229.0,22.7,-9999.0,'11111222,11111222,99999999' 
ADCP,ioos:station:wmo:42890:1,2012-05-03T06:47:00Z,27.6250,-90.4410,15.2,217.0,16.8,-9999.0,'11111222,11111222,99999999' 
ADCP,ioos:station:wmo:42890:1,2012-05-03T07:07:00Z,27.6250,-90.4410,15.2,217.0,17.0,-9999.0,'11111222,11111222,99999999' 
ADCP,ioos:station:wmo:42890:1,2012-05-03T07:27:00Z,27.6250,-90.4410,15.2,213.0,17.1,-9999.0,'11111222,11111222,99999999' 
ADCP,ioos:station:wmo:42890:1,2012-05-03T07:47:00Z,27.6250,-90.4410,15.2,220.0,17.2,-9999.0,'11111222,11111222,99999999' 
ADCP,ioos:station:wmo:42890:1,2012-05-03T08:07:00Z,27.6250,-90.4410,15.2,215.0,13.8,-9999.0,'11111222,11111222,99999999' 
ADCP,ioos:station:wmo:42890:1,2012-05-03T08:27:00Z,27.6250,-90.4410,15.2,217.0,13.5,-9999.0,'11111222,11111222,99999999' 
ADCP,ioos:station:wmo:42890:1,2012-05-03T08:47:00Z,27.6250,-90.4410,15.2,227.0,15.0,-9999.0,'11111222,11111222,99999999' 
ADCP,ioos:station:wmo:42890:1,2012-05-03T09:07:00Z,27.6250,-90.4410,15.2,120.0,36.7,-9999.0,'11111222,11111222,99999999' 
ADCP,ioos:station:wmo:42890:1,2012-05-03T09:27:00Z,27.6250,-90.4410,15.2,217.0,12.5,-9999.0,'11111222,11111222,99999999' 
ADCP,ioos:station:wmo:42890:1,2012-05-03T09:47:00Z,27.6250,-90.4410,15.2,226.0,13.6,-9999.0,'11111222,11111222,99999999' 
ADCP,ioos:station:wmo:42890:1,2012-05-03T10:07:00Z,27.6250,-90.4410,15.2,132.0,25.1,-9999.0,'11111222,11111222,99999999' 
ADCP,ioos:station:wmo:42890:1,2012-05-03T10:27:00Z,27.6250,-90.4410,15.2,219.0,11.4,-9999.0,'11111222,11111222,99999999' 
ADCP,ioos:station:wmo:42890:1,2012-05-03T10:47:00Z,27.6250,-90.4410,15.2,271.0,8.7,-9999.0,'11133222,11111222,99999999' 
ADCP,ioos:station:wmo:42890:1,2012-05-03T11:07:00Z,27.6250,-90.4410,15.2,243.0,15.5,-9999.0,'11111222,11111222,99999999' 
ADCP,ioos:station:wmo:42890:1,2012-05-03T11:27:00Z,27.6250,-90.4410,15.2,272.0,9.9,-9999.0,'11133222,11111222,99999999' 
ADCP,ioos:station:wmo:42890:1,2012-05-03T11:47:00Z,27.6250,-90.4410,15.2,276.0,7.4,-9999.0,'11133222,11111222,99999999' 
ADCP,ioos:station:wmo:42890:1,2012-05-03T12:07:00Z,27.6250,-90.4410,15.2,268.0,15.1,-9999.0,'11111222,11111222,99999999' 
ADCP,ioos:station:wmo:42890:1,2012-05-03T12:27:00Z,27.6250,-90.4410,15.2,270.0,12.4,-9999.0,'11111222,11111222,99999999' 
ADCP,ioos:station:wmo:42890:1,2012-05-03T12:47:00Z,27.6250,-90.4410,15.2,269.0,9.0,-9999.0,'11133222,11111222,99999999' 
ADCP,ioos:station:wmo:42890:1,2012-05-03T13:27:00Z,27.6250,-90.4410,15.2,289.0,10.2,-9999.0,'11111222,11111222,99999999' 
ADCP,ioos:station:wmo:42890:1,2012-05-03T13:47:00Z,27.6250,-90.4410,15.2,297.0,7.4,-9999.0,'11133222,11111222,99999999' 
ADCP,ioos:station:wmo:42890:1,2012-05-03T14:07:00Z,27.6250,-90.4410,15.2,348.0,10.0,-9999.0,'11111222,11111222,99999999' 
ADCP,ioos:station:wmo:42890:1,2012-05-03T14:27:00Z,27.6250,-90.4410,15.2,323.0,10.7,-9999.0,'11111222,11111222,99999999' 
ADCP,ioos:station:wmo:42890:1,2012-05-03T14:47:00Z,27.6250,-90.4410,15.2,311.0,7.7,-9999.0,'11133222,11111222,99999999' 
ADCP,ioos:station:wmo:42890:1,2012-05-03T15:07:00Z,27.6250,-90.4410,15.2,316.0,6.6,-9999.0,'11133222,11111222,99999999' 
ADCP,ioos:station:wmo:42890:1,2012-05-03T15:47:00Z,27.6250,-90.4410,15.2,300.0,6.4,-9999.0,'11133222,11111222,99999999' 
ADCP,ioos:station:wmo:42890:1,2012-05-03T16:07:00Z,27.6250,-90.4410,15.2,322.0,6.5,-9999.0,'11133222,11111222,99999999' 
ADCP,ioos:station:wmo:42890:1,2012-05-03T16:27:00Z,27.6250,-90.4410,15.2,266.0,2.6,-9999.0,'11133222,11111222,99999999' 
ADCP,ioos:station:wmo:42890:1,2012-05-03T16:47:00Z,27.6250,-90.4410,15.2,296.0,11.3,-9999.0,'11111222,11111222,99999999' 
ADCP,ioos:station:wmo:42890:1,2012-05-03T17:07:00Z,27.6250,-90.4410,15.2,204.0,5.7,-9999.0,'11133222,11111222,99999999' 
ADCP,ioos:station:wmo:42890:1,2012-05-03T17:27:00Z,27.6250,-90.4410,15.2,150.0,2.2,-9999.0,'11133222,11111222,99999999' 
ADCP,ioos:station:wmo:42890:1,2012-05-03T17:47:00Z,27.6250,-90.4410,15.2,237.0,17.8,-9999.0,'11111222,11111222,99999999' 
ADCP,ioos:station:wmo:42890:1,2012-05-03T18:07:00Z,27.6250,-90.4410,15.2,333.0,9.2,-9999.0,'11133222,11111222,99999999' 
ADCP,ioos:station:wmo:42890:1,2012-05-03T18:27:00Z,27.6250,-90.4410,15.2,45.0,8.8,-9999.0,'11133222,11111222,99999999' 
ADCP,ioos:station:wmo:42890:1,2012-05-03T18:47:00Z,27.6250,-90.4410,15.2,5.0,7.3,-9999.0,'11133222,11111222,99999999' 
ADCP,ioos:station:wmo:42890:1,2012-05-03T19:07:00Z,27.6250,-90.4410,15.2,252.0,8.7,-9999.0,'11133222,11111222,99999999' 